www.pogodaiklimat.ru
ПОГОДА в Беннингтоне
Время
и дата
01:54 19.05
02:54 19.05
03:54 19.05
04:54 19.05
05:54 19.05
06:54 19.05
07:54 19.05
08:54 19.05
09:54 19.05
10:54 19.05
11:54 19.05
12:54 19.05
13:54 19.05
14:54 19.05
15:54 19.05
16:54 19.05
17:54 19.05
18:54 19.05
19:54 19.05
20:54 19.05
21:54 19.05
22:54 19.05
23:54 19.05
00:54 20.05
01:54 20.05
02:54 20.05
03:54 20.05
04:54 20.05
05:54 20.05
06:54 20.05
07:54 20.05
08:54 20.05
09:54 20.05
10:54 20.05
11:54 20.05
12:54 20.05
13:54 20.05
14:54 20.05
15:54 20.05
16:54 20.05
17:54 20.05
18:54 20.05
19:54 20.05
20:54 20.05
21:54 20.05
22:54 20.05
23:54 20.05
00:54 21.05
Ветер
(напр.,м/с)
Видим. Явления Облачность Т
(С)
Тd
(С)
f
(%)
Тe
(С)
Тes
(С)
Комфортность P
(гПа)
Po
(гПа)
Тmin
(С)
Tmax
(С)
R
(мм)
R24
(мм)
S
(см)
В 2 16 км 10/10 1350 м +15.0 +10.6 75 +15 +15 1015.4 985.8
СВ 2 16 км ясно +12.8 +10.6 86 +12 +12 1015.4 985.5
штиль 0 16 км ясно +11.7 +10.0 89 +11 +11 1015.7 985.8
штиль 0 16 км ясно +10.6 +9.4 92 +10 +10 1016.4 986.5
штиль 0 16 км 8/8 1140 м +11.7 +10.0 89 +11 +11 1016.8 986.8
нст 2 16 км ясно +16.1 +11.7 75 +16 +18 1017.1 987.1 +10.0 +16.1
штиль 0 16 км ясно +18.3 +12.2 68 +19 +24 1017.2 987.4
нст 2 16 км 5/5 840 м +20.0 +12.8 63 +22 +26 комфорт 1016.8 987.1
штиль 0 16 км 5/5 1170 м +21.7 +12.8 57 +24 +32 комфорт 1016.5 986.8
В 3 16 км 8/8 1140 м +21.1 +12.8 59 +23 +26 комфорт 1016.3 986.5
ЮВ 4 16 км 10/10 1350 м +21.1 +12.8 59 +23 +23 комфорт 1015.9 986.1
ЮВ 4 16 км 10/10 1350 м +21.7 +12.2 55 +24 +24 комфорт 1015.5 985.8 +16.1 +22.2
ЮВ 3 16 км 10/10 1440 м +22.2 +12.2 53 +25 +25 комфорт 1014.8 985.1
С 2 16 км 10/10 1800 м +23.3 +12.2 50 +26 +26 жарко 1014.3 984.5
нст 2 16 км 8/8 1800 м +23.3 +12.8 52 +26 +29 жарко 1014.5 984.8
ЮВ 4 16 км 2/2 1500 м +22.2 +12.2 53 +25 +28 комфорт 1014.6 984.8
ЮВ 2 16 км 5/5 1950 м +21.7 +12.8 57 +24 +26 комфорт 1015.1 985.1
В 3 16 км ясно +19.4 +12.2 63 +21 +22 комфорт 1015.1 985.1 +19.4 +25.0
В 3 16 км ясно +18.3 +12.2 68 +19 +19 1015.6 985.8
В 2 16 км ясно +16.7 +11.7 72 +17 +17 1016.3 986.5
В 3 16 км 5/5 1650 м +16.1 +11.7 75 +16 +16 1016.7 987.1
В 3 16 км ясно +15.6 +11.7 78 +15 +15 1016.7 986.8
В 4 16 км 5/5 1800 м +15.6 +11.7 78 +15 +15 1016.7 986.8
В 3 16 км 8/5 1650 m
[Ac]
+15.0 +11.1 77 +14 +14 1016.5 986.8 +15.0 +19.4
ЮВ 3 16 км 2/2 1500 м +14.4 +10.6 78 +13 +13 1016.4 986.5
ЮВ 3 16 км ясно +12.2 +10.6 90 +11 +11 1016.4 986.8
штиль 0 16 км 8/0 2100 m
[Ac]
+11.7 +10.0 89 +11 +11 1016.2 986.5
штиль 0 16 км ясно +10.6 +9.4 92 +10 +10 1016.3 986.5
штиль 0 16 км ясно +13.9 +10.6 80 +14 +14 1017.1 987.1
штиль 0 16 км ясно +16.7 +11.7 72 +17 +19 1017.4 987.4 +10.6 +16.7
штиль 0 16 км ясно +18.3 +12.2 68 +19 +24 1017.1 987.1
штиль 0 16 км ясно +20.0 +12.8 63 +22 +32 комфорт 1016.6 986.8
Ю 2 16 км ясно +22.2 +14.4 61 +25 +38 комфорт 1016.4 986.8
штиль 0 16 км ясно +23.3 +15.0 60 +27 +49 душно 1016.3 986.5
З 3 16 км 2/2 1650 м +24.4 +16.7 62 +28 +40 душно 1015.9 986.1
З 2 16 км ясно +25.0 +16.1 58 +28 +47 жарко 1015.2 985.5 +16.7 +25.0
нст 2 16 км ясно +26.7 +13.9 45 +29 +47 жарко 1014.9 985.5
нст 2 16 км ясно +26.1 +16.1 54 +29 +44 жарко 1014.4 984.8
штиль 0 16 км ясно +27.8 +15.6 47 +31 +46 душно 1013.9 984.2
штиль 0 16 км ясно +27.2 +15.0 47 +30 +39 душно 1013.5 983.8
СЗ 2 16 км ясно +26.1 +15.0 50 +29 +32 жарко 1013.2 983.5
Ю 2 16 км ясно +22.8 +15.6 64 +27 +28 душно 1013.5 983.8 +22.8 +27.8
штиль 0 16 км ясно +19.4 +16.1 81 +21 +21 комфорт 1013.6 984.2
Ю 2 16 км 2/0 2100 m
[Ac]
+18.3 +14.4 78 +19 +19 1014.2 984.5
ЮВ 2 16 км 2/0 2400 m
[Ac]
+18.3 +13.9 76 +19 +19 1014.1 984.5
штиль 0 16 км ясно +16.7 +13.3 80 +17 +17 1014.0 984.5
штиль 0 16 км ясно +15.6 +13.3 86 +15 +15 1013.7 984.2
штиль 0 16 км ясно +14.4 +12.8 90 +14 +14 1013.3 983.8 +14.4 +23.3
Местоположение метеостанции Bennington Morse State Airport: широта 42.8936 долгота -73.2486 высота над уровнем моря 252 м.
В архиве по умолчанию представлена погода в Беннингтоне за последние 1-2 суток. Обновление информации о фактической погоде в базе происходит ежечасно! Архивные данные за месяц целиком и за предыдущие месяцы Вы можете получить, выбрав интересующий диапазон дат из раскрывающегося списка и нажав кнопку "Ввод!".
Внимание! Архив погоды МЕТАР в базе сайта по станциям, не включенным в климатический монитор, хранится не более 60 дней. Нет смысла пытаться выбрать более раннюю дату.
*Определитесь, кто Вы:
Внимание! Время в таблицах - местное (без учета летнего времени). Для получения всемирного времени необходимо вычесть поправку, которая равна -5 ч.
Смотрите также архив погоды в соседних городах и на ближайших метеорологических станциях:
Партнеры нашего сайта:      
Пояснения к столбцам:
  • Ветер - указаны скорость ветра в м/с - средняя за 10 мин, порывы в срок и между сроками (в фигурных скобках) и направление, откуда дует ветер: С - северный,
  • СВ - северо-восточный, В - восточный, ЮВ - юго-восточный, Ю - южный, ЮЗ - юго-западный, З - западный, СЗ - северо-западный.
  • Видимость - горизонтальная дальность видимости в метрах или километрах. При видимости от 1 до 10 км при отсутствии осадков обычно наблюдается дымка, при ухудшении видимости до 1 км и менее - туман. В сухую погоду видимость может ухудшаться дымом, пылью или мглою.
  • Явления - указаны атмосферные явления, наблюдавшиеся в срок или в последний час перед сроком; фигурными скобками обозначены явления, наблюдавшиеся между сроками (за 1-3 часа до срока); квадратными скобками обозначены град или гололедные отложения с указанием их диаметра в мм.
  • Облачность - указаны через наклонную черту общая и нижняя облачность в баллах и высота нижней границы облаков в метрах; квадратными скобками обозначены формы облаков: Ci - перистые, Cs - перисто-слоистые, Cc - перисто-кучевые, Ac - высококучевые, As - высокослоистые, Sc - слоисто-кучевые, Ns - слоисто-дождевые, Cu - кучевые, Cb - кучево-дождевые. Подробнее классификацию облаков см. в Атласе облаков (PDF).
  • T - Температура воздуха - температура, измеренная на высоте 2 м над землей.
  • Td - Температура точки росы - температура, при понижении до которой содержащийся в воздухе водяной пар достигнет насыщения.
  • f - Относительная влажность воздуха - влажноcть воздуха, измеренная на высоте 2 м над землей.
  • Te - Эффективная температура - температура, которую ощущает одетый по сезону человек в тени. Характеристика душности погоды. При расчете учитывается влияние влажности воздуха и скорости ветра на теплоощущения человека.
  • Tes - Эффективная температура на солнце - температура, которую ощущает человек, с поправкой на солнечный нагрев. Характеристика знойности погоды. Зависит от высоты солнца над горизонтом, облачности и скорости ветра. Ночью, в пасмурную погоду, а также при ветре 12 м/с и более поправка равна нулю.
  • P - Атмосферное давление - приведенное к уровню моря атмосферное давление.
  • Po - Атмосферное давление - измеренное на уровне метеостанции атмосферное давление.
  • Tmin - Минимальная температура - минимум температуры воздуха на высоте 2 м над землей.
  • Tmax - Максимальная температура - максимум температуры воздуха на высоте 2 м над землей.
  • R - Количество осадков - Количество выпавших осадков за период времени, мм. При наведении курсора мыши на число - период времени, за который выпало указанное количество осадков.
  • R24 - Количество осадков - Количество выпавших осадков за 24 часа, мм.
  • S - Снежный покров - Высота снежного покрова, см. При наведении курсора мыши на число - состояние снежного покрова и степень покрытия местности в баллах.